Weather Service Report


175 
ASUS43 KFSD 300210
RWRSD 

WEATHER ROUNDUP FOR SOUTH DAKOTA
NATIONAL WEATHER SERVICE SIOUX FALLS SD
900 PM CDT MON MAY 29 2017

NOTE: "FAIR" INDICATES FEW OR NO CLOUDS BELOW 12,000 FEET WITH NO
SIGNIFICANT WEATHER AND/OR OBSTRUCTIONS TO VISIBILITY.


SDZ001>005-009-010-012>017-300300-
NORTHWEST AND NORTH CENTRAL SOUTH DAKOTA
  
CITY           SKY/WX    TMP DP  RH WIND       PRES   REMARKS
BUFFALO          N/A     61  31  32 NW14      30.02S                  
FAITH            N/A     60  32  34 N15       30.05R                  
MOBRIDGE       MOCLDY    61  36  39 NW12      29.98S                  
$$
 
SDZ012>016-024>037-041>051-057-063-072>074-300300-
SOUTHWEST AND SOUTH CENTRAL SOUTH DAKOTA
  
CITY           SKY/WX    TMP DP  RH WIND       PRES   REMARKS
RAPID CTY ARPT CLEAR     62  28  27 N17       30.09R                  
PIERRE         PTCLDY    61  35  37 N8        30.01R                  
CUSTER         CLEAR     56  22  26 VRB3      30.17R                  
ELLSWORTH AFB  CLEAR     63  29  27 NW14      30.09R                  
PHILIP         CLEAR     61  34  36 NW9       30.04R                  
PINE RIDGE     CLEAR     61  38  42 NE7       30.10S                  
SPEARFISH      FAIR      59  30  33 NW8G15    30.13S                  
WINNER         FAIR      62  41  46 NW3       30.03S                  
$$
 
SDZ004>011-016>023-039-040-300300-
NORTHEAST SOUTH DAKOTA
  
CITY           SKY/WX    TMP DP  RH WIND       PRES   REMARKS
ABERDEEN       CLOUDY    60  36  40 NW10      29.97R                  
WATERTOWN      MOCLDY    56  40  55 NW14      29.96R                  
BROOKINGS      CLEAR     55  43  63 NW8       29.97S                  
SISSETON         N/A     57  45  64 N7        29.92S                  
$$
 
SDZ017-020-022-023-036>040-048>070-300300-
SOUTHEAST SOUTH DAKOTA
  
CITY           SKY/WX    TMP DP  RH WIND       PRES   REMARKS
SIOUX FALLS    PTCLDY    57  45  64 NW7       29.98S                  
HURON          CLEAR     59  39  47 N9        29.98R                  
CHAMBERLAIN    MOCLDY    64  39  39 NW6       30.02R                  
MITCHELL       PTCLDY    60  47  61 CALM      29.99S                  
YANKTON        PTCLDY    59  45  59 NW5       30.00F                  
$$
 
ABBREVIATIONS USED IN REMARKS
   TC - TEMPERATURE IN CELSIUS
  WCI - WIND CHILL INDEX
   HX - HEAT INDEX
  VSB - VISIBILITY

  


176 
ASUS43 KFSD 300210
RWRFSD

WEATHER ROUNDUP FOR SE SOUTH DAKOTA/SW MINNESOTA/NW IOWA
NATIONAL WEATHER SERVICE SIOUX FALLS SD
900 PM CDT MON MAY 29 2017

NOTE: "FAIR" INDICATES FEW OR NO CLOUDS BELOW 12,000 FEET WITH NO
SIGNIFICANT WEATHER AND OR OBSTRUCTIONS TO VISIBILITY.


SDZ038>040-050-052>070-300300-
SOUTHEAST SOUTH DAKOTA
  
CITY           SKY/WX    TMP DP  RH WIND       PRES   REMARKS
BROOKINGS      CLEAR     55  43  63 NW8       29.97S                  
CHAMBERLAIN    MOCLDY    64  39  39 NW6       30.02R                  
HURON          CLEAR     59  39  47 N9        29.98R                  
MADISON        FAIR      55  46  71 NW6       29.99R                  
MITCHELL       PTCLDY    60  47  61 CALM      29.99S                  
SIOUX FALLS    PTCLDY    57  45  64 NW7       29.98S                  
WINNER         FAIR      62  41  46 NW3       30.03S                  
YANKTON        PTCLDY    59  45  59 NW5       30.00F                  
$$

MNZ071-072-080-081-089-090-097-098-300300-
SOUTHWEST MINNESOTA
  
CITY           SKY/WX    TMP DP  RH WIND       PRES   REMARKS
FAIRMONT       LGT RAIN  55  49  80 W14       29.96R                  
JACKSON        PTCLDY    52  46  82 CALM      29.97S                  
LUVERNE        CLEAR     57  41  54 NW6       29.98S                  
MARSHALL       PTCLDY    56  47  71 NW8       29.94S                  
MONTEVIDEO     CLOUDY    57  52  82 N5        29.92F                  
PIPESTONE      CLEAR     57  45  62 NW6       29.97S                  
REDWOOD FALLS  PTCLDY    57  43  59 NW9       29.92S                  
TRACY          CLEAR     56  50  80 W6        29.95S                  
WINDOM         PTCLDY    54  48  82 W8        29.95S                  
WORTHINGTON    CLEAR     53  47  79 W8        29.97S                  
$$

IAZ001>003-012>014-020>022-031-032-NEZ013-014-SDZ071-300300-
NORTHWEST IOWA
  
CITY           SKY/WX    TMP DP  RH WIND       PRES   REMARKS
CHEROKEE       MOCLDY    60  43  52 N8        29.99R                  
DENISON        CLEAR     63  43  48 NW8G15    30.01S                  
ESTHERVILLE    LGT RAIN  53  49  86 NW21G36   29.97R                  
LE MARS        CLEAR     63  41  45 NW9       30.00R                  
ORANGE CITY    CLEAR     59  45  58 NW6       29.99R                  
SHELDON        CLEAR     59  41  51 N7        29.97R                  
SIOUX CITY     CLEAR     61  43  51 NW9       30.00R                  
SPENCER        MOCLDY    57  46  66 NW8       29.97R                  
STORM LAKE     PTCLDY    61  41  48 NW10      29.99S                  
$$
 
ABBREVIATIONS USED IN REMARKS
   TC - TEMPERATURE IN CELSIUS
  WCI - WIND CHILL INDEX
   HX - HEAT INDEX
  VSB - VISIBILITY

  

Return to Home page


Western Regional Climate Center, wrcc@dri.edu